Hoquiam, WA

10:29 AM PDT on June 23, 2017 (GMT -0700)
Bowerman

Weather History for KHQM - October, 2012

Change the Weather History Date:

Tuesday, October 23, 2012

  Actual Average Record
Temperature  
Mean Temperature 45 °F 51 °F  
Max Temperature 48 °F 57 °F 73 °F (2007)
Min Temperature 42 °F 44 °F 32 °F (1954)
Degree Days  
Heating Degree Days 20 14  
Month to date heating degree days 271  
Cooling Degree Days 0 0  
Month to date cooling degree days 0  
Year to date cooling degree days 23  
Moisture  
Dew Point 42 °F    
Average Humidity 89    
Maximum Humidity 93    
Minimum Humidity 77    
Precipitation  
Precipitation 0.50 in 0.25 in 2.20 in (1996)
Month to date precipitation 4.23  
Year to date precipitation 44.12  
Sea Level Pressure  
Sea Level Pressure 29.79 in    
Wind  
Wind Speed 8 mph (East)    
Max Wind Speed 22 mph    
Max Gust Speed 25 mph    
Visibility 8 miles    
Events Rain    
T = Trace of Precipitation, MM = Missing Value Source: NWS Daily Summary

Daily Weather History Graph

Daily Weather History Graph

Search for Another Location

Airport or City:

Trip Planner

Search our weather history database for the weather conditions in past years. The results will help you decide how hot, cold, wet, or windy it might be!

Date:

Astronomy

Oct. 23, 2012 Rise Set
Actual Time 7:46 AM PDT 6:13 PM PDT
Civil Twilight 7:14 AM PDT 6:44 PM PDT
Nautical Twilight 6:39 AM PDT 7:19 PM PDT
Astronomical Twilight 6:04 AM PDT 7:54 PM PDT
Moon 3:19 PM PDT 1:22 AM PDT
Length of Visible Light 11h 29m
Length of Day
10h 27m
Waxing Gibbous, 67% of the Moon is Illuminated
Oct 23
Waxing Gibbous
Oct 29
Full
Nov 6
Last Quarter
Nov 13
New
Nov 20
First Quarter

Hourly Weather History & Observations

Time (PDT) Temp. Windchill Dew Point Humidity Pressure Visibility Wind Dir Wind Speed Gust Speed Precip Events Conditions
12:53 AM 45.0 °F 41.2 °F 42.1 °F 90% 29.66 in 10.0 mi East 6.9 mph - 0.00 in   Mostly Cloudy
1:53 AM 44.1 °F - 41.0 °F 89% 29.68 in 10.0 mi Calm Calm - 0.01 in   Partly Cloudy
2:53 AM 44.1 °F 40.1 °F 41.0 °F 89% 29.69 in 10.0 mi Variable 6.9 mph - N/A   Mostly Cloudy
3:53 AM 44.1 °F 40.8 °F 39.9 °F 85% 29.73 in 5.0 mi South 5.8 mph - 0.01 in Rain Rain
4:53 AM 43.0 °F 40.3 °F 41.0 °F 93% 29.73 in 10.0 mi NE 4.6 mph - 0.00 in   Overcast
5:33 AM 42.8 °F 39.3 °F 41.0 °F 93% 29.72 in 10.0 mi NE 5.8 mph - N/A Rain Light Rain
5:51 AM 42.8 °F 40.1 °F 41.0 °F 93% 29.73 in 8.0 mi NE 4.6 mph - 0.01 in Rain Light Rain
5:53 AM 43.0 °F 40.3 °F 41.0 °F 93% 29.74 in 7.0 mi NE 4.6 mph - 0.01 in Rain Light Rain
6:53 AM 43.0 °F 39.5 °F 41.0 °F 93% 29.75 in 8.0 mi ENE 5.8 mph - N/A Rain Light Rain
7:26 AM 42.8 °F 38.6 °F 41.0 °F 93% 29.74 in 10.0 mi ENE 6.9 mph - N/A   Overcast
7:53 AM 43.0 °F 38.2 °F 41.0 °F 93% 29.76 in 6.0 mi ENE 8.1 mph - N/A Rain Light Rain
8:01 AM 42.8 °F 38.0 °F 41.0 °F 93% 29.75 in 6.0 mi ENE 8.1 mph - 0.00 in Rain Light Rain
8:53 AM 43.0 °F 37.7 °F 41.0 °F 93% 29.78 in 7.0 mi ENE 9.2 mph - 0.00 in Rain Light Rain
9:53 AM 44.6 °F 39.2 °F 41.0 °F 87% 29.78 in 6.0 mi ESE 10.4 mph - N/A Rain Light Rain
10:53 AM 44.1 °F 39.5 °F 42.1 °F 93% 29.79 in 7.0 mi ENE 8.1 mph - 0.02 in Rain Light Rain
11:22 AM 46.4 °F 40.7 °F 42.8 °F 87% 29.79 in 10.0 mi East 12.7 mph - 0.01 in   Overcast
11:53 AM 46.0 °F 39.6 °F 42.1 °F 86% 29.81 in 10.0 mi ESE 15.0 mph - 0.02 in Rain Light Rain
12:02 PM 46.4 °F 39.8 °F 41.0 °F 81% 29.80 in 10.0 mi ESE 16.1 mph - 0.01 in Rain Light Rain
12:53 PM 46.4 °F 39.8 °F 42.8 °F 87% 29.81 in 10.0 mi SE 16.1 mph - N/A Rain Light Rain
1:53 PM 48.0 °F - 43.0 °F 83% 29.82 in 10.0 mi SE 16.1 mph 20.7 mph 0.00 in   Mostly Cloudy
2:53 PM 48.9 °F - 42.1 °F 77% 29.83 in 10.0 mi ESE 13.8 mph - 0.01 in   Scattered Clouds
3:53 PM 46.9 °F - 41.0 °F 80% 29.84 in 10.0 mi ESE 12.7 mph - N/A   Overcast
4:53 PM 46.0 °F 38.0 °F 42.1 °F 86% 29.84 in 3.0 mi SE 21.9 mph 25.3 mph 0.03 in Rain Rain
4:55 PM 46.4 °F 39.5 °F 42.8 °F 87% 29.83 in 2.5 mi SSE 17.3 mph 25.3 mph 0.01 in Rain Heavy Rain
5:11 PM 44.6 °F 39.7 °F 42.8 °F 93% 29.83 in 5.0 mi SE 9.2 mph - 0.06 in Rain Light Rain
5:53 PM 46.0 °F 40.6 °F 42.1 °F 86% 29.83 in 9.0 mi East 11.5 mph - 0.14 in Rain Light Rain
6:37 PM 46.4 °F 41.9 °F 42.8 °F 87% 29.84 in 2.0 mi SE 9.2 mph - 0.08 in Rain Heavy Rain
6:44 PM 44.6 °F 43.1 °F 39.2 °F 81% 29.84 in 1.5 mi SE 3.5 mph - 0.14 in Rain Heavy Rain
6:53 PM 44.1 °F 42.5 °F 39.0 °F 82% 29.85 in 1.5 mi WNW 3.5 mph - 0.20 in Rain Heavy Rain
7:02 PM 44.6 °F 43.1 °F 41.0 °F 87% 29.83 in 3.0 mi Variable 3.5 mph - 0.03 in Rain Rain
7:33 PM 42.8 °F 38.6 °F 41.0 °F 93% 29.83 in 10.0 mi NNE 6.9 mph - 0.05 in   Mostly Cloudy
7:53 PM 43.0 °F 39.5 °F 39.9 °F 89% 29.84 in 10.0 mi NE 5.8 mph - 0.05 in   Mostly Cloudy
8:53 PM 44.1 °F 40.8 °F 42.1 °F 93% 29.84 in 10.0 mi NE 5.8 mph - N/A   Overcast
9:02 PM 44.6 °F 41.4 °F 42.8 °F 93% 29.83 in 10.0 mi NE 5.8 mph - N/A   Overcast
9:53 PM 45.0 °F 41.2 °F 43.0 °F 93% 29.85 in 10.0 mi ENE 6.9 mph - 0.00 in Rain Light Rain
10:53 PM 44.6 °F 41.4 °F 42.8 °F 93% 29.83 in 10.0 mi ENE 5.8 mph - N/A Rain Light Rain
11:10 PM 44.6 °F 41.4 °F 42.8 °F 93% 29.83 in 8.0 mi ENE 5.8 mph - 0.00 in Rain Light Rain
11:53 PM 45.0 °F 41.2 °F 43.0 °F 93% 29.83 in 10.0 mi NE 6.9 mph - 0.00 in   Overcast